User: anonymous   Login
Location: Irma
(52.9170°N, 111.2330°W)
Time: 20:37:31
(UTC-06:00)
Language:

Meteor 1-24 Rocket - Orbit

View from above orbital plane
View from above orbital plane
View from above satellite
View from above satellite

Ground track
Ground track

The orbit data is extracted from the following two-line orbital elements,

1 08800U 76032B   15213.89484381  .00000266  00000-0  13868-3 0  9994
2 08800 081.2521 163.9751 0093620 326.4684 033.0581 14.10036551 21607
Epoch (UTC): 01 August 2015 21:28:34
Eccentricity: 0.0093620
inclination: 81.2521°
perigee height: 791 km
apogee height: 927 km
right ascension of ascending node: 163.9751°
argument of perigee: 326.4684°
revolutions per day: 14.10036551
mean anomaly at epoch: 33.0581°
orbit number at epoch: 2160

The dashed part of the orbit path shows where the satellite is in the earth's shadow,  

DLR